This is the latest recevied weather packets stored in our database for station/object EB2EMZ-14. If no packets are shown the sender has not sent any weather packets the latest 1 day(s).
| Time | Temp. | Humidity | Pressure | Rain* | Wind** | Luminosity | Snow |
|---|---|---|---|---|---|---|---|
| 1777996808 | 13.33° C | 73% | 1012.1 hPa | 0 mm | 0 m/s | 0 W/m² | - |
| 1777996509 | 13.33° C | 73% | 1012.1 hPa | 0 mm | 0 m/s | 0 W/m² | - |
| 1777996209 | 13.33° C | 73% | 1012 hPa | 0 mm | 0 m/s | 0 W/m² | - |
| 1777995909 | 13.33° C | 72% | 1011.9 hPa | 0 mm | 0 m/s | 0 W/m² | - |
| 1777995609 | 13.33° C | 71% | 1011.9 hPa | 0 mm | 0 m/s | 0 W/m² | - |
| 1777995309 | 13.89° C | 72% | 1011.9 hPa | 0 mm | 0 m/s | 0 W/m² | - |
| 1777995008 | 14.44° C | 73% | 1011.9 hPa | 0 mm | 0 m/s | 0 W/m² | - |
| 1777994709 | 13.89° C | 73% | 1011.9 hPa | 0 mm | 0 m/s | 0 W/m² | - |
| 1777994408 | 13.89° C | 73% | 1011.8 hPa | 0 mm | 0 m/s | 0 W/m² | - |
| 1777994108 | 13.89° C | 73% | 1012 hPa | 0 mm | 0 m/s | 0 W/m² | - |
| 1777993809 | 13.89° C | 74% | 1012 hPa | 0 mm | 0 m/s | 0 W/m² | - |
| 1777993510 | 13.33° C | 77% | 1012.1 hPa | 0 mm | 0 m/s | 0 W/m² | - |
| 1777993208 | 12.78° C | 78% | 1012.2 hPa | 0 mm | 0 m/s | 0 W/m² | - |
| 1777992909 | 12.22° C | 79% | 1012.2 hPa | 0 mm | 0 m/s | 0 W/m² | - |
| 1777992609 | 11.67° C | 80% | 1012.2 hPa | 0 mm | 0 m/s | 0 W/m² | - |
| 1777992308 | 11.11° C | 79% | 1012.2 hPa | 0 mm | 0 m/s | 0 W/m² | - |
| 1777992008 | 11.11° C | 78% | 1012.2 hPa | 0 mm | 0 m/s | 0 W/m² | - |
| 1777991708 | 10.56° C | 78% | 1012.2 hPa | 0 mm | 0 m/s | 0 W/m² | - |
| 1777991410 | 11.11° C | 77% | 1012.2 hPa | 0 mm | 0 m/s | 0 W/m² | - |
| 1777991108 | 11.11° C | 76% | 1012.2 hPa | 0 mm | 0 m/s | 0 W/m² | - |
| 1777990811 | 11.11° C | 76% | 1012.2 hPa | 0 mm | 0 m/s | 0 W/m² | - |
| 1777990508 | 11.67° C | 76% | 1012.2 hPa | 0 mm | 0 m/s | 0 W/m² | - |
| 1777990209 | 11.67° C | 74% | 1012.3 hPa | 0 mm | 0 m/s | 0 W/m² | - |
| 1777989908 | 12.22° C | 74% | 1012.3 hPa | 0 mm | 0 m/s | 0 W/m² | - |
| 1777989609 | 12.78° C | 72% | 1012.2 hPa | 0 mm | 0 m/s | 0 W/m² | - |
* Rain latest hour (hover to see other rain measurements)
** Current wind speed in m/s (hover to see current wind gust speed)